[Date Prev][Date Next][Thread Prev][Thread Next] - [Date Index][Thread Index][Author Index]
2 Line ISS Keps 2-1
- Subject: [sarex] 2 Line ISS Keps 2-1
- From: "Dave Larsen Ph.D." <doc@xxxxxxxxxxx>
- Date: Sat, 1 Feb 2003 02:01:53 -0800
ISS
1 25544U 98067A 03032.17634259 .00040254 00000-0 49099-3 0 6452
2 25544 51.6371 343.4088 0005341 101.0798 104.8744 15.60050038239789
----
Via the sarex mailing list at AMSAT.ORG courtesy of AMSAT-NA.
To unsubscribe, send "unsubscribe sarex" to Majordomo@amsat.org
AMSAT Home